Location: Oak Glen
(34.0495°N, 116.9470°E)
Time: 05:05:28
(UTC-08:00)

Vanguard 3 - Visible Passes

Search period start: 22 February 2018 00:00
Search period end: 04 March 2018 00:00
Orbit: 508 x 3264 km, 33.3° (Epoch: 21 February)

Date Brightness Start Highest point End Pass type
(mag) Time Alt. Az. Time Alt. Az. Time Alt. Az.
22 Feb 7.8 03:53:02 10° W 03:56:26 30° SSW 03:56:57 29° S visible
23 Feb 7.0 02:39:35 10° W 02:43:08 48° SSW 02:47:06 10° ESE visible
23 Feb 9.5 04:52:07 10° WSW 04:52:08 10° SW 04:52:08 10° SW visible
24 Feb 8.2 03:38:01 10° WSW 03:41:00 23° SSW 03:42:46 18° SSE visible
25 Feb 7.4 02:24:14 10° W 02:27:45 38° SSW 02:31:22 10° SE visible
26 Feb 8.6 03:23:07 10° WSW 03:25:33 17° SSW 03:28:11 10° SSE visible
28 Feb 8.9 03:08:34 10° SW 03:10:01 12° SSW 03:11:29 10° S visible
